DL1ONI-13 Weather Reports


time (UTC)temp
C
wind
direction
speed
KPH
gust
KPH
rain 1hr
cm
rain 24hr
cm
rain mn
cm
humidity
%
barometer
mb
20260507064022 13 279 9.7 14.5 0.00 0.00 0.00 55 1016.1
20260507063023 13 214 8.0 12.9 0.00 0.00 0.00 54 1016.2
20260507062023 13 257 9.7 11.3 0.00 0.00 0.00 54 1016.1
20260507061023 13 226 8.0 14.5 0.00 0.00 0.00 54 1015.7
20260507060023 13 262 8.0 12.9 0.00 0.00 0.00 55 1015.7
20260507055024 13 260 9.7 11.3 0.00 0.00 0.00 55 1015.7
20260507054043 13 248 9.7 14.5 0.00 0.00 0.00 54 1015.9
20260507053042 14 226 9.7 20.9 0.00 0.00 0.00 52 1015.5
20260507052023 16 249 6.4 19.3 0.00 0.00 0.00 50 1015.7
20260507051023 18 220 4.8 17.7 0.00 0.00 0.00 50 1015.6
20260507050024 16 177 3.2 8.0 0.00 0.00 0.00 56 1015.4
20260507045023 11 207 4.8 4.8 0.00 0.00 0.00 67 1015.1
20260507044044 10 243 3.2 11.3 0.00 0.00 0.00 68 1015.0
20260507043024 9 205 3.2 8.0 0.00 0.00 0.00 69 1014.0
20260507042025 9 204 4.8 8.0 0.00 0.00 0.00 69 1014.0
20260507041024 9 249 4.8 8.0 0.00 0.00 0.00 70 1014.6
20260507040025 9 205 3.2 9.7 0.00 0.00 0.00 70 1014.6
20260507035025 8 199 3.2 3.2 0.00 0.00 0.00 71 1014.8
20260507034025 8 199 3.2 6.4 0.00 0.00 0.00 71 1014.8
20260507033045 8 239 3.2 4.8 0.00 0.00 0.00 71 1015.4
20260507032015 8 249 3.2 3.2 0.00 0.00 0.00 71 1015.4
20260507031025 8 247 1.6 4.8 0.00 0.00 0.00 70 1015.6
20260507030025 8 237 1.6 3.2 0.00 0.00 0.00 70 1015.6
20260507025015 8 256 1.6 3.2 0.00 0.00 0.00 70 1015.5
20260507024016 8 197 1.6 3.2 0.00 0.00 0.00 70 1015.6
20260507023017 8 225 1.6 4.8 0.00 0.00 0.00 69 1015.3
20260507022036 8 165 3.2 3.2 0.00 0.00 0.00 70 1015.3
20260507021037 9 225 3.2 4.8 0.00 0.00 0.00 69 1015.6
20260507020017 9 255 3.2 6.4 0.00 0.00 0.00 70 1015.6
20260507015018 9 240 3.2 3.2 0.00 0.00 0.00 69 1015.7
20260507014018 9 215 3.2 8.0 0.00 0.00 0.00 69 1015.5
20260507013039 10 210 3.2 6.4 0.00 0.00 0.00 69 1015.3
20260507012019 10 230 3.2 6.4 0.00 0.00 0.00 68 1015.3
20260507011019 10 238 3.2 8.0 0.00 0.00 0.00 68 1015.4
20260507010019 10 234 1.6 3.2 0.00 0.00 0.00 67 1015.4
20260507005020 10 243 3.2 3.2 0.00 0.00 0.00 67 1015.2
20260507004020 10 250 3.2 3.2 0.00 0.00 0.00 67 1015.3
20260507003020 10 229 4.8 6.4 0.00 0.00 0.00 67 1015.3
20260507002020 10 238 4.8 9.7 0.00 0.00 0.00 67 1015.3
20260507001020 11 265 4.8 11.3 0.00 0.00 0.00 67 1015.5
20260507000020 11 243 4.8 8.0 0.00 0.00 0.00 67 1015.5
20260506235100 11 190 4.8 11.3 0.00 0.00 0.00 67 1015.3
20260506234021 11 204 4.8 8.0 0.00 0.00 0.00 66 1015.3
20260506233042 11 211 3.2 6.4 0.00 0.00 0.00 65 1015.3
20260506232021 11 205 3.2 8.0 0.00 0.00 0.00 66 1015.3
20260506231022 11 204 4.8 9.7 0.00 0.00 0.00 66 1015.3
20260506230022 11 230 4.8 8.0 0.00 0.00 0.00 65 1015.3
20260506225021 12 207 4.8 9.7 0.00 0.00 0.00 65 1015.4
20260506224020 12 215 4.8 8.0 0.00 0.00 0.00 65 1015.3
20260506223021 12 221 6.4 12.9 0.00 0.00 0.00 65 1015.0
20260506222023 12 265 6.4 12.9 0.00 0.00 0.00 65 1015.0
20260506221024 12 209 4.8 8.0 0.00 0.00 0.00 66 1015.2
20260506215023 12 206 4.8 11.3 0.00 0.00 0.00 66 1015.1
20260506214024 12 262 6.4 6.4 0.00 0.00 0.00 66 1015.1
20260506213024 12 252 6.4 11.3 0.00 0.00 0.00 66 1014.8
20260506212023 12 262 6.4 8.0 0.00 0.00 0.00 66 1014.8
20260506211045 12 262 8.0 14.5 0.00 0.00 0.00 67 1014.6
20260506210025 12 242 8.0 19.3 0.00 0.00 0.00 67 1014.6
20260506205015 12 308 9.7 14.5 0.00 0.00 0.00 68 1014.6
20260506204026 12 215 8.0 17.7 0.00 0.00 0.00 69 1014.6
20260506203015 13 236 8.0 14.5 0.00 0.00 0.00 71 1013.8
20260506202025 13 221 6.4 16.1 0.00 0.00 0.00 71 1013.8
20260506201015 13 249 6.4 12.9 0.00 0.00 0.00 71 1012.8
20260506200026 13 256 8.0 12.9 0.00 0.00 0.00 72 1012.8
20260506195016 13 244 8.0 11.3 0.00 0.00 0.00 73 1012.5
20260506194037 13 231 8.0 17.7 0.00 0.00 0.00 73 1012.5
20260506193019 13 217 6.4 11.3 0.00 0.00 0.00 73 1012.5
20260506192018 13 212 4.8 9.7 0.00 0.00 0.00 71 1012.5
20260506191019 13 211 3.2 9.7 0.00 0.00 0.00 69 1011.9
20260506190019 13 242 3.2 8.0 0.00 0.00 0.00 68 1011.9
20260506185019 13 232 4.8 9.7 0.00 0.00 0.00 67 1011.2
20260506184020 13 221 6.4 9.7 0.00 0.00 0.00 66 1011.2
20260506183020 13 248 6.4 8.0 0.00 0.00 0.00 64 1011.1
20260506182020 13 260 6.4 9.7 0.00 0.00 0.00 65 1011.1
20260506181041 14 220 3.2 4.8 0.00 0.00 0.00 63 1010.7
20260506180021 15 241 8.0 11.3 0.00 0.00 0.00 62 1010.7
20260506175021 15 262 14.5 22.5 0.00 0.00 0.00 56 1010.5
20260506174021 17 257 14.5 30.6 0.00 0.00 0.00 48 1010.6
20260506173021 18 235 9.7 22.5 0.00 0.00 0.00 53 1009.4
20260506172021 18 173 8.0 11.3 0.00 0.00 0.00 53 1009.4
20260506171021 18 189 9.7 12.9 0.00 0.00 0.00 50 1009.0
20260506170022 20 167 8.0 9.7 0.00 0.00 0.00 47 1009.1
20260506165042 21 176 6.4 9.7 0.00 0.00 0.00 46 1009.5
20260506164023 21 135 3.2 6.4 0.00 0.00 0.00 47 1009.5
20260506163021 21 113 3.2 4.8 0.00 0.00 0.00 47 1009.3
20260506162021 21 137 4.8 9.7 0.00 0.00 0.00 46 1009.3
20260506161043 21 165 4.8 6.4 0.00 0.00 0.00 46 1009.1
20260506160022 21 141 4.8 6.4 0.00 0.00 0.00 46 1009.2
20260506155022 21 148 3.2 8.0 0.00 0.00 0.00 47 1008.5
20260506154022 20 93 1.6 3.2 0.00 0.00 0.00 47 1008.5
20260506153022 21 140 3.2 4.8 0.00 0.00 0.00 46 1009.0
20260506152022 21 135 1.6 4.8 0.00 0.00 0.00 46 1009.0
20260506151021 21 120 1.6 1.6 0.00 0.00 0.00 45 1009.4
20260506150021 21 205 1.6 4.8 0.00 0.00 0.00 42 1009.3
20260506145020 22 184 1.6 3.2 0.00 0.08 0.00 41 1009.0
20260506144040 22 180 1.6 4.8 0.00 0.08 0.00 41 1009.0
20260506143021 22 50 0.0 1.6 0.00 0.15 0.00 40 1009.1
20260506142021 23 149 1.6 1.6 0.00 0.15 0.00 41 1009.1
20260506141022 23 70 1.6 3.2 0.00 0.15 0.00 40 1010.3
20260506140021 23 140 3.2 4.8 0.00 0.15 0.00 40 1010.3
20260506135102 23 43 1.6 3.2 0.00 0.15 0.00 40 1010.7
20260506134022 23 129 1.6 3.2 0.00 0.15 0.00 40 1010.8
20260506133022 23 155 1.6 4.8 0.00 0.15 0.00 41 1011.0
20260506132023 23 69 3.2 6.4 0.00 0.15 0.00 41 1011.0
20260506131024 21 82 4.8 6.4 0.00 0.15 0.00 40 1011.0
20260506130024 23 17 1.6 11.3 0.00 0.15 0.00 41 1011.1
20260506125045 22 6 3.2 4.8 0.00 0.15 0.00 41 1011.4
20260506124045 22 314 3.2 4.8 0.00 0.15 0.00 42 1011.4
20260506123025 22 42 4.8 9.7 0.00 0.15 0.00 42 1011.7
20260506122016 22 108 4.8 6.4 0.00 0.15 0.00 44 1011.6
20260506121016 22 71 1.6 6.4 0.00 0.15 0.00 45 1011.8
20260506120017 21 145 3.2 3.2 0.00 0.15 0.00 45 1011.7
20260506115016 21 57 3.2 8.0 0.00 0.15 0.00 45 1011.6
20260506114057 21 114 3.2 6.4 0.00 0.15 0.00 45 1011.6
20260506113018 21 115 3.2 9.7 0.00 0.15 0.00 46 1012.0
20260506112019 21 67 3.2 4.8 0.00 0.15 0.00 46 1012.0
20260506111018 21 37 3.2 8.0 0.00 0.15 0.00 46 1012.4
20260506110019 21 15 3.2 9.7 0.00 0.15 0.00 45 1012.5
20260506105040 21 35 1.6 6.4 0.00 0.15 0.00 45 1012.0
20260506104020 21 73 1.6 3.2 0.00 0.15 0.00 47 1012.0
20260506103041 20 82 1.6 4.8 0.00 0.15 0.00 48 1012.9
20260506102042 20 60 1.6 4.8 0.00 0.15 0.00 47 1012.9
20260506101023 20 42 3.2 3.2 0.00 0.15 0.00 47 1012.7
20260506100023 20 45 1.6 4.8 0.00 0.15 0.00 47 1012.7
20260506095024 20 338 1.6 6.4 0.00 0.15 0.00 47 1012.2
20260506094024 20 320 1.6 1.6 0.00 0.15 0.00 49 1012.1
20260506093024 20 46 3.2 4.8 0.00 0.15 0.00 49 1012.8
20260506092044 20 81 1.6 3.2 0.00 0.15 0.00 50 1012.8
20260506091024 20 200 1.6 3.2 0.00 0.15 0.00 49 1012.9
20260506090025 19 128 1.6 3.2 0.00 0.15 0.00 51 1012.8
20260506085025 18 144 0.0 3.2 0.00 0.15 0.00 51 1012.8
20260506084025 18 33 1.6 3.2 0.00 0.15 0.00 52 1012.7
20260506083025 18 66 1.6 1.6 0.00 0.15 0.00 54 1012.7
20260506082025 18 187 1.6 4.8 0.00 0.15 0.00 56 1012.7
20260506081024 18 71 1.6 3.2 0.00 0.15 0.00 58 1012.7
20260506073024 16 223 1.6 4.8 0.00 0.15 0.00 59 1012.6
20260506072024 16 243 1.6 3.2 0.00 0.15 0.00 60 1012.6
20260506071025 16 160 1.6 1.6 0.00 0.15 0.00 60 1013.0